Location: Arthez
(43.0833°N, 0.2500°W)
Time: 13:13:46
(UTC+00:00)

NOSS 2-3 (E) - Pass Details

Date: 23 October 2021
Orbit: 540 x 1670 km, 63.4° (Epoch: 28 November)

Event Time Altitude Azimuth Distance (km) Brightness Sun altitude
Rises 18:04:45 0° 209° (SSW) 2,683 7.3 -11.5°
Reaches altitude 10° 18:06:51 10° 207° (SSW) 1,803 6.4 -11.9°
Maximum altitude 18:10:45 71° 123° (ESE) 610 3.3 -12.6°
Drops below altitude 10° 18:15:14 10° 40° (NE) 2,062 5.8 -13.4°
Enters shadow 18:15:22 - 40° (NE) 2,119 5.9 -13.4°
